User: anonymous   Login
Location: Bakov nad Jizerou
(50.4784°N, 14.9394°E)
Time: 05:30:25
(UTC+00:00)
Language:

FALCON 9 DEB - Orbit

View from above orbital plane
View from above orbital plane
View from above satellite
View from above satellite

Ground track
Ground track

The orbit data is extracted from the following two-line orbital elements,

1 46086U 20055BM  21265.46289955  .00027068  00000-0  23108-3 0  9990
2 46086  53.0055  77.5827 0011280 192.8750 167.1979 15.69258594 68901
Epoch (UTC): 22 September 2021 11:06:34
Eccentricity: 0.0011280
inclination: 53.0055°
perigee height: 353 km
apogee height: 368 km
right ascension of ascending node: 77.5827°
argument of perigee: 192.8750°
revolutions per day: 15.69258594
mean anomaly at epoch: 167.1979°
orbit number at epoch: 6890

The dashed part of the orbit path shows where the satellite is in the earth's shadow,  

DLR